Regional Weather Roundup
Issued by NWS

Home | Current Version | Previous Version | Text Only | Print | Product List | Glossary Off
Versions: 1 2 3 4 5 6 7 8 9 10 11 12 13 14 15 16 17 18 19 20 21 22 23 24 25 26 27 28 29 30 31 32 33 34 35 36 37 38 39 40 41 42 43 44 45 46 47 48 49 50

000
ASUS43 KDTX 251301
RWRMI
MICHIGAN HOURLY REGIONAL WEATHER ROUNDUP
NATIONAL WEATHER SERVICE DETROIT/PONTIAC MI
900 AM EDT WED MAY 25 2016

NOTE: "FAIR" INDICATES FEW OR NO CLOUDS BELOW 12,000 FEET WITH NO
SIGNIFICANT WEATHER AND/OR OBSTRUCTION TO VISIBILITY.

MIZ047>049-052>055-059>063-066>070-074>076-081>083-251400-
SOUTHEAST LOWER MICHIGAN

CITY           SKY/WX    TMP DP  RH WIND       PRES   REMARKS
ADRIAN         SUNNY     69  53  56 SW8       30.08S
ALMA           SUNNY     70  58  64 SW6       30.03R
ANN ARBOR      SUNNY     69  56  62 SW6       30.08R
BAD AXE        SUNNY     69  56  63 SW7       30.04R
CARO           SUNNY     71  57  61 SW5       30.03S
DETROIT CITY   SUNNY     72  52  49 W7        30.06R
DETROIT        PTSUNNY   70  53  54 S6        30.08R
FLINT          SUNNY     76  56  49 W7        30.04S
GROSSE ILE     SUNNY     70  55  60 S5        30.06S
HILLSDALE      SUNNY     71  51  47 S6        30.09R
HOWELL         SUNNY     72  56  57 SW7       30.06R

CITY           SKY/WX    TMP DP  RH WIND       PRES   REMARKS
JACKSON        SUNNY     73  56  54 SW8       30.07R
LAMBERTVILLE   SUNNY     71  55  55 SW3       30.09R
LANSING        SUNNY     72  58  61 SW6       30.05R
LAPEER         FAIR      73  54  52 W7        30.04F
MASON          SUNNY     71  57  61 SW5       30.06R
MONROE         SUNNY     71  56  58 SW7       30.07S
PONTIAC        PTSUNNY   72  56  57 SW7       30.05S
PORT HOPE        N/A     60  56  86 E3        30.01S
PORT HURON     SUNNY     70  57  64 S3        30.04S
TRI CITIES     SUNNY     71  55  56 SW5       30.03S
MIDLAND        FAIR      68  57  67 SW3       30.02S
TROY           SUNNY     72  53  51 SW3       30.07S
SAGINAW HB     SUNNY     72  54  53 SW7       30.03R
$$
MIZ043>046-050>051-056>058-064>065-071>073-077>080-251400-
SOUTHWEST LOWER MICHIGAN

CITY           SKY/WX    TMP DP  RH WIND       PRES   REMARKS
BATTLE CREEK   MOSUNNY   70  57  63 S8        30.07R
BENTON HARBOR  SUNNY     72  58  61 S7        30.05R
BIG RAPIDS     SUNNY     65  64  94 CALM      30.02R
COLDWATER      SUNNY     72  55  56 SW8       30.08R
FREMONT        FAIR      67  60  77 S3        30.02R
HOLLAND        CLOUDY    71  60  68 S6        30.05R
GRAND RAPIDS   CLOUDY    75  59  57 SW10      30.04R
IONIA          FAIR      71  57  60 SW6       30.04R
KALAMAZOO      SUNNY     71  57  61 S6        30.07R
LUDINGTON      SUNNY     66  58  75 CALM      30.02R
MARSHALL       SUNNY     71  57  60 SW5       30.06R
MOUNT PLEASANT SUNNY     70  59  68 CALM      30.02R
MUSKEGON       MOSUNNY   70  57  63 S12       30.03R
SOUTH HAVEN    MOSUNNY   72  59  63 SW6       30.05R
$$
MIZ016>042-251400-
NORTHERN LOWER MICHIGAN

CITY           SKY/WX    TMP DP  RH WIND       PRES   REMARKS
ALPENA         SUNNY     62  56  80 CALM      30.05S
BEAVER ISLAND  FOG       56  56 100 NE6       30.03S VSB 1/2
BELLAIRE       MOSUNNY   58  58  97 CALM      30.02S FOG
CADILLAC       SUNNY     68  57  66 CALM      30.02R
CHARLEVOIX     FOG       57  57 100 NE3       30.05S VSB 3/4
FRANKFORT      SUNNY     63  56  77 CALM      30.02R
GAYLORD        PTSUNNY   58  56  93 E5        30.03F FOG
GRAYLING       SUNNY     65  54  67 E3        30.03S
HARBOR SPRINGS CLOUDY    57  57  99 NE6       30.03S FOG
HOUGHTON LAKE  SUNNY     69  56  62 CALM      30.03R
MANISTEE       MOSUNNY   64  55  72 CALM      30.03R
OSCODA         MOSUNNY   66  52  60 E6        30.02S
PELLSTON       CLOUDY    57  55  93 NE5       30.04S FOG
ROGERS CITY    CLOUDY    55  53  95 N3        30.05S FOG
TRAVERSE CITY  CLOUDY    60  54  80 NW5       30.03R
$$
MIZ007>008-015-251400-
EASTERN UPPER MICHIGAN

CITY           SKY/WX    TMP DP  RH WIND       PRES   REMARKS
KINROSS          N/A     55  54  94 NE7       30.05S
MACKINAC ISLAN FOG       56  56 100 E5        30.04S VSB 1/2
NEWBERRY       FOG       53  53  97 NE5       30.05F VSB 3/4
S. S. MARIE    CLOUDY    56  52  86 E5        30.06R
MUNISING         N/A     45  44  97 NE9       30.07S
$$
MIZ004>006-011>014-085-251400-
CENTRAL UPPER MICHIGAN

CITY           SKY/WX    TMP DP  RH WIND       PRES   REMARKS
MANISTIQUE     CLOUDY    55  54  97 N6        30.04R
ESCANABA       CLOUDY    57  54  88 NW6       30.05R
MENOMINEE      CLOUDY    56  54  93 NE7       30.07R
SAWYER-GWINN   FOG       48  46  93 N8        30.07R VSB 1/2
$$
MIZ001>003-009>011-084-251400-
WESTERN UPPER MICHIGAN

CITY           SKY/WX    TMP DP  RH WIND       PRES   REMARKS
IRON MOUNTAIN  CLOUDY    54  51  90 E5        30.06R
HOUGHTON       CLOUDY    48  45  89 E10       30.07R
COPPER HARBOR    N/A     44  43  96 SE6       30.09S
IRONWOOD       CLOUDY    55  55 100 E7        30.01R VSB 3/4
$$

ABBREVIATIONS USED IN REMARKS
   TC - TEMPERATURE IN CELSIUS
  WCI - WIND CHILL INDEX
   HX - HEAT INDEX
  VSB - VISIBILITY





USA.gov is the U.S. government's official web portal to all federal, state and local government web resources and services.